TimeCST,TemperatureF,Dew PointF,Humidity,Sea Level PressureIn,VisibilityMPH,Wind Direction,Wind SpeedMPH,Gust SpeedMPH,PrecipitationIn,Events,Conditions,WindDirDegrees,DateUTC
12:15 AM,47.7,36.0,64,30.12,10.0,East,3.5,-,N/A,,Clear,100,2012-11-08 06:15:00
12:35 AM,46.8,35.2,64,30.12,10.0,ESE,4.6,-,N/A,,Clear,110,2012-11-08 06:35:00
12:55 AM,46.4,35.6,66,30.11,10.0,ESE,5.8,-,N/A,,Clear,110,2012-11-08 06:55:00
1:15 AM,47.3,35.1,62,30.11,10.0,ESE,6.9,-,N/A,,Clear,110,2012-11-08 07:15:00
1:35 AM,46.6,34.5,63,30.11,10.0,ESE,6.9,-,N/A,,Clear,110,2012-11-08 07:35:00
1:55 AM,45.7,34.0,64,30.11,10.0,ESE,5.8,-,N/A,,Clear,120,2012-11-08 07:55:00
2:15 AM,45.5,33.8,64,30.12,10.0,ESE,5.8,-,N/A,,Clear,110,2012-11-08 08:15:00
2:35 AM,45.5,33.8,64,30.12,10.0,ESE,6.9,-,N/A,,Clear,110,2012-11-08 08:35:00
2:55 AM,45.7,33.6,63,30.11,10.0,ESE,6.9,-,N/A,,Clear,110,2012-11-08 08:55:00
3:15 AM,45.5,33.1,62,30.12,10.0,East,6.9,-,N/A,,Clear,100,2012-11-08 09:15:00
3:35 AM,45.9,32.9,61,30.12,10.0,ESE,6.9,-,N/A,,Clear,110,2012-11-08 09:35:00
3:55 AM,46.2,33.3,61,30.12,10.0,ESE,10.4,-,N/A,,Clear,110,2012-11-08 09:55:00
4:15 AM,46.0,33.8,62,30.13,10.0,East,10.4,-,N/A,,Clear,100,2012-11-08 10:15:00
4:35 AM,45.5,34.0,64,30.13,10.0,East,8.1,-,N/A,,Clear,100,2012-11-08 10:35:00
4:55 AM,44.8,34.2,66,30.13,10.0,East,10.4,-,N/A,,Clear,100,2012-11-08 10:55:00
5:15 AM,44.6,34.5,68,30.14,10.0,ESE,9.2,-,N/A,,Clear,110,2012-11-08 11:15:00
5:35 AM,44.6,34.9,69,30.13,10.0,ESE,8.1,-,N/A,,Clear,110,2012-11-08 11:35:00
5:55 AM,44.1,35.2,71,30.14,10.0,ESE,8.1,-,N/A,,Clear,110,2012-11-08 11:55:00
6:15 AM,43.9,35.6,73,30.15,10.0,ESE,9.2,-,N/A,,Clear,110,2012-11-08 12:15:00
6:55 AM,43.7,36.1,75,30.15,10.0,ESE,9.2,-,N/A,,Clear,110,2012-11-08 12:55:00
7:15 AM,44.4,36.5,74,30.16,10.0,ESE,8.1,-,N/A,,Clear,120,2012-11-08 13:15:00
7:35 AM,45.7,36.7,71,30.17,10.0,ESE,9.2,-,N/A,,Clear,120,2012-11-08 13:35:00
7:55 AM,47.3,36.7,67,30.18,10.0,SE,9.2,-,N/A,,Clear,130,2012-11-08 13:55:00
8:15 AM,48.6,37.0,64,30.18,10.0,SE,12.7,19.6,N/A,,Clear,140,2012-11-08 14:15:00
8:35 AM,49.8,37.2,62,30.18,10.0,ESE,10.4,-,N/A,,Clear,120,2012-11-08 14:35:00
8:55 AM,51.8,37.4,58,30.18,10.0,ESE,10.4,-,N/A,,Clear,120,2012-11-08 14:55:00
9:15 AM,53.1,37.6,56,30.18,10.0,ESE,10.4,18.4,N/A,,Clear,120,2012-11-08 15:15:00
9:35 AM,54.9,37.8,53,30.17,10.0,SE,9.2,16.1,N/A,,Clear,140,2012-11-08 15:35:00
9:55 AM,56.5,37.8,50,30.17,10.0,SE,9.2,-,N/A,,Clear,140,2012-11-08 15:55:00
10:15 AM,58.1,38.3,48,30.16,10.0,SE,10.4,18.4,N/A,,Clear,130,2012-11-08 16:15:00
10:35 AM,60.3,39.0,45,30.15,10.0,ESE,10.4,17.3,N/A,,Clear,120,2012-11-08 16:35:00
10:55 AM,61.5,38.7,43,30.15,10.0,SE,11.5,17.3,N/A,,Scattered Clouds,140,2012-11-08 16:55:00
11:15 AM,63.9,39.7,41,30.13,10.0,SE,10.4,-,N/A,,Scattered Clouds,130,2012-11-08 17:15:00
11:35 AM,66.2,40.5,39,30.12,10.0,SSE,11.5,16.1,N/A,,Clear,160,2012-11-08 17:35:00
11:55 AM,67.1,41.7,40,30.11,10.0,SSE,10.4,17.3,N/A,,Clear,160,2012-11-08 17:55:00
12:15 PM,68.2,43.0,40,30.09,10.0,SE,11.5,19.6,N/A,,Clear,140,2012-11-08 18:15:00
12:35 PM,70.0,44.2,40,30.07,10.0,SE,12.7,18.4,N/A,,Clear,140,2012-11-08 18:35:00
12:55 PM,69.8,44.4,40,30.06,10.0,South,10.4,19.6,N/A,,Clear,170,2012-11-08 18:55:00
1:15 PM,71.2,46.6,41,30.05,10.0,South,10.4,19.6,N/A,,Clear,170,2012-11-08 19:15:00
1:35 PM,72.0,46.8,41,30.03,10.0,SSE,11.5,20.7,N/A,,Clear,160,2012-11-08 19:35:00
1:55 PM,72.7,47.5,41,30.03,10.0,SSE,10.4,17.3,N/A,,Clear,160,2012-11-08 19:55:00
2:15 PM,73.2,48.7,42,30.02,10.0,SSE,12.7,21.9,N/A,,Clear,160,2012-11-08 20:15:00
2:35 PM,73.4,49.6,43,30.01,10.0,South,15.0,23.0,N/A,,Clear,170,2012-11-08 20:35:00
2:55 PM,73.8,50.0,43,30.01,10.0,SSE,13.8,18.4,N/A,,Clear,160,2012-11-08 20:55:00
3:15 PM,73.8,50.0,43,30.00,10.0,SSE,10.4,18.4,N/A,,Clear,160,2012-11-08 21:15:00
3:35 PM,73.8,50.0,43,30.00,10.0,SSE,12.7,17.3,N/A,,Clear,150,2012-11-08 21:35:00
3:55 PM,73.4,49.8,43,30.00,10.0,SSE,9.2,17.3,N/A,,Clear,150,2012-11-08 21:55:00
4:15 PM,72.5,49.5,44,30.00,10.0,SSE,9.2,17.3,N/A,,Clear,150,2012-11-08 22:15:00
4:35 PM,71.8,49.3,45,29.99,10.0,SSE,10.4,18.4,N/A,,Clear,160,2012-11-08 22:35:00
4:55 PM,70.2,49.1,47,30.00,10.0,SSE,9.2,16.1,N/A,,Clear,150,2012-11-08 22:55:00
5:15 PM,68.9,48.6,48,30.00,10.0,SSE,10.4,-,N/A,,Clear,150,2012-11-08 23:15:00
5:35 PM,67.8,48.0,49,30.00,10.0,SSE,9.2,-,N/A,,Clear,150,2012-11-08 23:35:00
5:55 PM,67.3,47.7,49,30.01,10.0,SE,10.4,16.1,N/A,,Clear,140,2012-11-08 23:55:00
6:15 PM,66.6,47.5,50,30.01,10.0,SSE,10.4,17.3,N/A,,Clear,150,2012-11-09 00:15:00
6:35 PM,66.2,47.3,51,30.02,10.0,SE,10.4,-,N/A,,Clear,140,2012-11-09 00:35:00
6:55 PM,65.3,47.3,52,30.02,10.0,SE,8.1,-,N/A,,Clear,140,2012-11-09 00:55:00
7:15 PM,64.6,46.9,53,30.02,10.0,SSE,9.2,-,N/A,,Clear,150,2012-11-09 01:15:00
7:35 PM,64.0,46.4,53,30.02,10.0,SSE,12.7,16.1,N/A,,Clear,150,2012-11-09 01:35:00
7:55 PM,64.2,46.2,52,30.02,10.0,SSE,12.7,18.4,N/A,,Clear,150,2012-11-09 01:55:00
8:15 PM,63.9,45.9,52,30.03,10.0,SSE,10.4,-,N/A,,Clear,150,2012-11-09 02:15:00
8:35 PM,63.7,45.9,52,30.03,10.0,SSE,8.1,-,N/A,,Clear,150,2012-11-09 02:35:00
8:55 PM,63.1,45.9,53,30.03,10.0,SE,5.8,-,N/A,,Clear,140,2012-11-09 02:55:00
9:15 PM,61.9,45.9,56,30.03,10.0,SE,8.1,-,N/A,,Clear,130,2012-11-09 03:15:00
9:35 PM,61.5,45.9,56,30.03,10.0,SE,9.2,-,N/A,,Clear,130,2012-11-09 03:35:00
9:55 PM,61.7,45.9,56,30.03,10.0,SE,6.9,17.3,N/A,,Clear,140,2012-11-09 03:55:00
10:15 PM,60.4,45.7,58,30.03,10.0,SE,4.6,-,N/A,,Clear,140,2012-11-09 04:15:00
10:35 PM,60.3,45.5,58,30.03,10.0,SE,6.9,-,N/A,,Clear,130,2012-11-09 04:35:00
10:55 PM,60.4,45.5,58,30.03,10.0,SE,9.2,-,N/A,,Clear,140,2012-11-09 04:55:00
11:15 PM,60.4,45.7,58,30.03,10.0,SE,11.5,16.1,N/A,,Clear,140,2012-11-09 05:15:00
11:35 PM,59.7,45.7,60,30.02,10.0,SE,8.1,16.1,N/A,,Clear,140,2012-11-09 05:35:00
11:55 PM,58.3,45.1,62,30.02,10.0,SE,9.2,-,N/A,,Clear,130,2012-11-09 05:55:00